Regional Weather Roundup
Issued by NWS Cleveland, OH

Home | Current Version | Previous Version | Graphics & Text | Print | Product List | Glossary On
Versions: 1 2 3 4 5 6 7 8 9 10 11 12 13 14 15 16 17 18 19 20 21 22 23 24 25 26 27 28 29 30 31 32 33 34 35 36 37 38 39 40 41 42 43 44 45 46 47 48 49 50
000
ASUS41 KCLE 160112
RWRCLE
OHIO REGIONAL WEATHER ROUNDUP
NATIONAL WEATHER SERVICE WILMINGTON, OH
800 PM EST MON JAN 15 2018

NOTE: "FAIR" INDICATES FEW OR NO CLOUDS BELOW 12,000 FEET WITH NO
SIGNIFICANT WEATHER AND/OR OBSTRUCTIONS TO VISIBILITY.

OHZ001>008-015>018-024>027-034-035-043-044-160200-
   NORTHWEST OHIO

CITY           SKY/WX    TMP DP  RH WIND       PRES   REMARKS
DEFIANCE       CLOUDY    22  19  89 S6        30.26R WCI  14
FINDLAY        LGT SNOW  24  19  81 SW8       30.26R WCI  15
TOLEDO EXPRESS CLOUDY    22  21  96 S5        30.25R WCI  16
TOLEDO EXEC    CLOUDY    23  20  88 S8        30.27R WCI  14
LIMA           CLOUDY    23  21  92 SW8       30.26R WCI  14
$$

OHZ009>014-019>023-028>033-038-089-160200-
   NORTHEAST OHIO

CITY           SKY/WX    TMP DP  RH WIND       PRES   REMARKS
CLE-HOPKINS    FLURRIES  27  22  81 S8        30.29S WCI  19
CLE-LAKEFRONT  CLOUDY    27  21  78 S15G22    30.27S WCI  15
CUY CO. ARPT   FLURRIES  27  23  86 S8        30.27S WCI  18
LORAIN-ELYRIA  CLOUDY    25  18  74 S8        30.26S WCI  16
ASHTABULA      LGT SNOW  24  21  88 S9        30.28F FOG     WCI  14
AKRON-CANTON   LGT SNOW  26  22  84 S7        30.26S VSB 1   WCI  18
WOOSTER        FLURRIES  25  22  88 S9        30.25F WCI  15
MANSFIELD      CLOUDY    25  22  88 SW9       30.24R WCI  15
YOUNGSTOWN     LGT SNOW  24  21  88 SE7       30.27S FOG     WCI  16
$$

OHZ042-051>053-060>062-070>072-077>081-160200-
  SOUTHWEST OHIO

CITY           SKY/WX    TMP DP  RH WIND       PRES   REMARKS
CINC-COVINGTON LGT SNOW  27  27 100 SW6       30.31R FOG     WCI  20
CINC-LUNKEN    LGT SNOW  28  27  96 SW7       30.35R FOG     WCI  21
HAMILTON       CLOUDY    28  25  88 W7        30.33R WCI  21
DAYTON         CLOUDY    25  23  92 W12       30.29R WCI  14
WRIGHT-PAT AFB CLOUDY    26  22  85 SW7       30.29R WCI  19
DAYTON GENERAL CLOUDY    27  23  85 W8        30.29R WCI  19
WILMINGTON     CLOUDY    26  26 100 SW12      30.29R WCI  16
$$

OHZ036-037-039>041-045>050-054>059-063>069-073>076-082>088-160200-
  CENTRAL AND SOUTHEAST OHIO

CITY           SKY/WX    TMP DP  RH WIND       PRES   REMARKS
COLUMBUS       CLOUDY    27  25  92 SW8       30.29R WCI  19
OSU AIRPORT    CLOUDY    27  24  89 W9        30.28S WCI  18
BOLTON FIELD   NOT AVBL
RICKENBACK AFB LGT SNOW  26  26 100 SW5       30.30R WCI  21
NEWARK         LGT SNOW  27  25  92 S5        30.28S WCI  22
MARION         LGT SNOW  25  22  88 SW9       30.27R FOG     WCI  15
LANCASTER      LGT SNOW  27  25  92 W6        30.29S FOG     WCI  20
ZANESVILLE     LGT SNOW  27  24  89 S3        30.29S VSB 1
NEW PHILLY     LGT SNOW  26  24  92 SE3       30.29F FOG
$$




USA.gov is the U.S. government's official web portal to all federal, state and local government web resources and services.